COSMOS 886 DEB

Satellite information

Favourite Embed

Satellite Type and Status

DEBRISIN ORBIT

Key statistics

Satellite COSMOS 886 DEB at a glance.

Uptime

17838

Days in orbit

Revolutions

≈ 13.6

Per day

Orbit

LEO

Low Earth Orbit

Inclination

65.8

Latest

Satellite identification and parameters

Extended collection of information and parameters for COSMOS 886 DEB.

Object identification

Identified? True

Debris? True

Object name: COSMOS 886 DEB

International designator: 1976-126BG

Object number (NORAD): 9966

Object ID (CCSDS): 9966

Country: COMMONWEALTH OF INDEPENDENT STATES (CIS)

Current information (Y/N): Y

RCS size: SMALL

Orbital parameters

Period: 105.679 minutes

Inclination: 65.7748 deg

SMA: 7404.345 km

Apoapsis: 1481.199 km

Periapsis: 571.221 km

RAAN: 119.4307 deg

Eccentricy: 0.0614489

Argument of periapsis: 105.1225 deg

Mean anomaly: 261.8623 deg

Mean motion: 13.62613785 rev/day

Mean motion (dot): 0.0000546 rev/day2

B* drag term: 0.0019438 1/REarth

Two-line elements (TLE)

Creation date: Oct. 27, 2025, 6:36 a.m.

Reference frame: TEME

Reference center: EARTH

Epoch: Oct. 26, 2025, 9:48 p.m. UTC

TLE line 0: 0 COSMOS 886 DEB

TLE line 1: 1 9966U 76126BG 25299.90842963 .00005460 00000-0 19438-2 0 9992

TLE line 2: 2 9966 65.7748 119.4307 0614489 105.1225 261.8623 13.62613785339478

Live tracking on map

Real-time ground track for satellite COSMOS 886 DEB.

In-orbit conjunctions

A list of the most updated potential collisions computed for object COSMOS 886 DEB.

Target Orbit TCA Probability of collision Miss distance Type
PSLV R/B SSO 2025-10-02 11:37:44 0.0002205016 240.0 (m) ROCKET BODY
COSMOS 1680 LEO 2025-02-02 13:10:58 0.00014323 315.0 (m) PAYLOAD
CZ-6A DEB LEO 2025-01-01 09:00:12 0.0001907548 213.0 (m) DEBRIS

Associated space launch

Second generation ASAT satellite

COSMOS 886 DEB was lifted into orbit during the mission ‘Tsiklon-2 | IS-A 4’, on board a Tsiklon-2 space rocket.

The launch took place on Dec. 27, 1976, 12:05 p.m. from 90.

For more information about the launch, click the button.

Launch to space Tsiklon-2 | IS-A 4
Tsiklon-2 | IS-A 4

Agency: N/A

Status: Launch Successful

Launch date: Dec. 27, 1976, 12:05 p.m. UTC

Rocket: Tsiklon-2

Launch pad: 90

Location: Baikonur Cosmodrome, Republic of Kazakhstan

...

Latest news about this satellite

There are no fresh news available about this satellite. Check back as we update our databases every day.


Newsletter sign-up

Weekly statistics, charts and insights to help you stay on top of the space industry.